Regional Weather Roundup
Issued by NWS

Home | Current Version | Previous Version | Graphics & Text | Print | Product List | Glossary On
Versions: 1 2 3 4 5 6 7 8 9 10 11 12 13 14 15 16 17 18 19 20 21 22 23 24 25 26 27 28
000
ASUS45 KBOU 051007
RWRCO

WEATHER ROUNDUP FOR COLORADO
NATIONAL WEATHER SERVICE DENVER/BOULDER CO
300 AM MST MON DEC 05 2016

NOTE: "FAIR" INDICATES FEW OR NO CLOUDS BELOW 12000 FEET WITH NO
SIGNIFICANT WEATHER AND/OR OBSTRUCTIONS TO VISIBILITY.

COZ001>005-013-030-031-051100-
...NORTHWEST COLORADO...

CITY           SKY/WX    TMP DP  RH WIND       PRES   REMARKS
CRAIG          CLOUDY    36  15  42 W13       29.74R
HAYDEN         CLOUDY    30  16  55 W5        29.73F WCI  25
MEEKER         CLOUDY    34  17  50 SW8       29.77F WCI  27
MOUNT WERNER   NOT AVBL
STEAMBOAT SPGS CLOUDY    22  19  85 CALM      29.73F
WALDEN           N/A     30  19  64 SW9       29.71F WCI  22
$$

COZ006>008-011-051100-
...WEST CENTRAL VALLEYS...

CITY           SKY/WX    TMP DP  RH WIND       PRES   REMARKS
GRAND JUNCTION FAIR      25  20  81 CALM      29.86F
MONTROSE       CLOUDY    28  19  69 S3        29.89F
EAGLE          CLOUDY    28  18  66 E6        29.80F WCI  22
RIFLE          CLOUDY    28  21  75 NE3       29.85F
DELTA          MOCLDY    30  20  66 CALM      29.87F
NUCLA          CLOUDY    28  16  59 E3        29.95F
$$

COZ017>023-064>068-051100-
...SOUTHWEST COLORADO...

CITY           SKY/WX    TMP DP  RH WIND       PRES   REMARKS
DURANGO        FAIR      17  13  84 E5        29.97F WCI  10
CORTEZ         FAIR      20  16  84 E5        29.96F WCI  13
PAGOSA SPRINGS FAIR      15  14  95 CALM      29.97F
TELLURIDE      NOT AVBL
WOLF CREEK PAS FAIR      16  12  86 SW17G23   30.00F WCI   0
$$

COZ009-010-012-014-032>034-037-058>063-051100-
...CENTRAL COLORADO...

CITY           SKY/WX    TMP DP  RH WIND       PRES   REMARKS
ASPEN          CLOUDY    30  21  69 N6        29.77F WCI  24
BUENA VISTA    FAIR      31  10  41 S5        29.79S WCI  27
COPPER MTN     LGT SNOW  28  14  54 SW24G38   29.84F WCI  14
BERTHOUD PASS  CLOUDY    19   7  58 W26G43    29.77F WCI   1
COTTONWOOD PAS FAIR      34  12  40 W12G24    29.79S WCI  25
GUNNISON       CLOUDY     9   4  80 CALM      29.93F
KREMMLING      MOCLDY    41  18  38 SW13      29.73F
LEADVILLE      CLOUDY    30  11  45 CALM      29.79F
MONARCH PASS   FAIR      19  10  68 W31       29.98F WCI   0
SALIDA         FAIR      38  11  32 S7        29.86F
SUNLIGHT       CLOUDY    21  14  73 SW23G31   29.84F WCI   5
WILKERSON PASS FAIR      27  10  50 W13G23    29.82F WCI  16
$$

COZ069>075-051100-
...SAN LUIS VALLEY/SANGRE DE CRISTO MOUNTAINS...

CITY           SKY/WX    TMP DP  RH WIND       PRES   REMARKS
ALAMOSA        FAIR       2  -2  83 VRB6      29.91F WCI  -9
LA VETA PASS   FAIR      23  12  63 NE30G46   29.80F WCI   5
SAGUACHE       FAIR      14   5  67 NW7       29.91F WCI   4
$$

COZ035-036-038>040-051100-
...NORTHERN COLORADO FRONT RANGE...

CITY           SKY/WX    TMP DP  RH WIND       PRES   REMARKS
DENVER INTL AP FAIR      30  16  56 SE12      29.61F WCI  20
DMNS CITY PARK   N/A     31  16  53 SE12      29.60F WCI  22
AURORA         PTCLDY    39  16  40 S7        29.62F
FRONT RANGE AP FAIR      32  19  59 S9        29.63F WCI  24
ERIE MUNI ARPT FAIR      38  15  39 CALM      29.60F
BOULDER MUN AP FAIR      54  18  24 W29G45    29.56F
CENTENNIAL     FAIR      44  15  31 SW9       29.62F
BROOMFIELD     FAIR      37  18  44 W8        29.62S
FORT COLLINS   FAIR      39  19  45 SE12G18   29.58F
LONGMONT       FAIR      52  20  28 W21G30    29.59F
$$

COZ041-046-047-076>085-087-088-051100-
...PIKES PEAK/PALMER DIVIDE AND SOUTHERN FOOTHILLS...

CITY           SKY/WX    TMP DP  RH WIND       PRES   REMARKS
COLO. SPRINGS  FAIR      36  12  37 NE8       29.68F
A. F. ACADEMY  FAIR      25  11  55 NE7       29.66F WCI  18
SCHRIEVER AFB  NOT AVBL
ELLICOTT       FAIR     N/A N/A N/A CALM      29.67F
FALCON         FAIR      33  11  41 SW5       29.70F WCI  28
FORT CARSON    FAIR      32  11  42 N3        29.65F
LIMON          FAIR      17  12  80 N6        29.64F WCI   9
MONUMENT HILL  FAIR      34  14  44 W9        29.69S WCI  26
TRINIDAD       FAIR      35  11  36 W14       29.73F WCI  26
$$

COZ042>045-048>051-090-091-051100-
...NORTHEAST COLORADO...

CITY           SKY/WX    TMP DP  RH WIND       PRES   REMARKS
GREELEY ARPT   FAIR      22  13  68 NE9       29.62F WCI  12
AKRON          FAIR      31  13  47 W10       29.63F WCI  22
BURLINGTON     FAIR      28  14  55 SW8       29.64F WCI  20
WRAY           NOT AVBL
STERLING       FAIR      21  14  73 S3        29.62F
HOLYOKE        FAIR      34  19  55 CALM      29.63F
FORT MORGAN    FAIR      26  13  59 CALM      29.63F
$$

COZ086-089-092>099-051100-
...SOUTHEAST COLORADO...

CITY           SKY/WX    TMP DP  RH WIND       PRES   REMARKS
PUEBLO         FAIR      28  15  58 VRB6      29.68F WCI  22
LA JUNTA       FAIR      30  15  53 SW7       29.67F WCI  23
LAMAR          MIX PCPN  18  12  77 CALM      29.67F
SPRINGFIELD      N/A     26  18  71 SW14      29.70F WCI  14
$$




USA.gov is the U.S. government's official web portal to all federal, state and local government web resources and services.